#timestamp,LO_Frequency,Hit,StdDev 
1550451615.3,286047007.2,N
1550451635.2,286047001.3,N
1550451655.9,286047001.9,N
1550451675.7,286047004.4,N
1550451695.6,286047002.2,N
1550451715.4,286047001.3,N
1550451735.3,286047003.0,N
1550451755.1,286047005.0,N
1550451756.0,286047005.0,N
1550451775.8,286047002.5,N
1550451795.7,286047002.4,N
1550451815.5,286047002.6,N
1550451835.3,286047002.8,N
1550451855.2,286047002.1,N
1550451875.0,286047002.4,N
1550451875.9,286047002.4,N
1550451895.8,286047003.6,N
1550451915.6,286047003.6,N
1550451935.4,286047002.4,N
1550451955.3,286047000.9,N
1550451975.1,286046998.6,N
1550451995.8,286047000.9,N
1550452015.7,286047002.6,N
1550452035.5,286047001.5,N
1550452055.4,286047005.7,N
1550452075.2,286047005.6,N
1550452095.0,286047001.4,N
1550452095.9,286047001.4,N
1550452115.8,286047003.9,N
1550452135.6,286047003.6,N
1550452155.5,286047005.3,Y
1550452175.3,286047005.9,P
1550452195.1,286047002.8,N
1550452215.9,286046999.9,N
1550452235.7,286046999.3,N
1550452255.5,286046998.0,N
1550452275.4,286046997.7,N
1550452295.2,286046997.7,N
1550452315.1,286046997.6,N
1550452316.0,286046997.6,N
1550452335.8,286046996.9,N
1550452355.6,286046999.9,N
1550452375.5,286047000.1,N
1550452395.3,286047001.8,N
1550452415.1,286047002.0,N
1550452435.9,286047005.7,N
1550452455.7,286047003.8,N
1550452475.6,286047001.8,N
1550452495.4,286047002.1,N
1550452515.2,286047001.6,N
1550452535.1,286047000.3,N
1550452536.0,286047000.3,N
1550452555.8,286047000.9,N
1550452575.6,286047004.0,N
1550452595.5,286047004.4,N
1550452615.3,286047004.0,N
1550452635.2,286047002.0,N
1550452655.9,286047001.8,N
1550452675.7,286047004.3,N
1550452695.6,286047002.0,N
1550452715.4,286047002.7,N
1550452735.2,286047000.6,N
1550452755.1,286047000.3,N
1550452756.0,286047000.3,N
1550452775.8,286047004.0,N
1550452795.7,286047000.3,N
1550452815.5,286047001.5,N
1550452835.3,286047002.0,N
1550452855.2,286047002.4,N
1550452875.0,286047001.5,N
1550452875.9,286047001.5,N
1550452895.7,286047001.8,N
1550452915.6,286047002.4,N
1550452935.4,286047000.7,N
1550452955.3,286047001.1,N
1550452975.1,286047000.5,N
1550452976.0,286047000.5,N
1550452995.8,286047002.5,N
1550453015.7,286047001.5,N
1550453035.5,286047003.6,N
1550453055.3,286047002.8,N
1550453075.2,286047001.6,N
1550453095.0,286046999.9,N
1550453095.9,286046999.9,N
1550453115.8,286047000.0,N
1550453135.6,286047000.8,N
1550453155.4,286046998.2,N
1550453175.3,286047002.8,N
1550453195.1,286047000.4,N
1550453215.9,286046999.9,N
1550453235.7,286047002.6,N
1550453255.5,286047001.0,N
1550453275.4,286046998.2,N
1550453295.2,286047001.0,N
1550453315.0,286047002.1,N
1550453315.9,286047002.1,N
1550453335.8,286047003.2,N
1550453355.6,286047003.3,N
1550453375.5,286047001.0,N
1550453395.3,286046998.7,N
1550453415.1,286046998.9,N
1550453435.9,286046997.4,N
1550453455.7,286046997.6,N
1550453475.5,286046997.0,N
1550453495.4,286046999.4,N
1550453515.2,286046998.6,N
1550453535.1,286047002.0,N
1550453536.0,286047002.0,N
1550453555.8,286047001.4,N
1550453575.6,286047003.9,N
1550453595.5,286047003.6,N
1550453615.3,286047001.7,N
1550453635.1,286047003.5,N
1550453655.9,286047005.0,N
1550453675.7,286047002.0,N
1550453695.6,286046999.4,N
1550453715.4,286046997.0,N
1550453735.2,286046998.3,N
1550453755.1,286047002.2,N
1550453756.0,286047002.2,N
1550453775.8,286047001.5,N
1550453795.6,286047003.2,N
1550453815.5,286047001.3,N
1550453835.3,286047003.8,N
1550453855.2,286047004.0,N
1550453875.9,286047004.0,N
1550453895.7,286047001.5,N
1550453915.6,286047002.6,N
1550453935.4,286047003.8,N
1550453955.2,286047003.6,N
1550453975.1,286047005.7,N
1550453976.0,286047005.7,N
1550453995.8,286047003.3,N
1550454045.7,286047001.8,E
1550454055.6,286047002.8,N
1550454075.4,286046997.7,P
1550454095.3,286046996.5,N
1550454115.1,286046999.0,N
1550454135.9,286047001.2,N
1550454155.7,286046996.7,N
1550454175.5,286046995.5,N
1550454195.4,286046995.6,N
1550454215.2,286046996.5,N
1550454235.0,286047001.1,N
1550454236.0,286047001.1,N
1550454255.8,286047000.5,N
1550454275.6,286047000.2,N
1550454295.5,286047002.5,N
1550454315.3,286047000.7,N
1550454335.1,286046998.9,N
1550454355.9,286046999.0,N
1550454375.7,286046996.5,N
1550454395.6,286046996.6,N
1550454415.4,286046997.0,N
1550454435.2,286047000.7,N
1550454455.1,286046999.2,N
1550454456.0,286046999.2,N
1550454475.8,286046997.2,N
1550454495.7,286046993.3,Y
1550454515.5,286046996.3,P
1550454535.3,286046995.5,P
1550454555.2,286046995.3,P
1550454575.0,286047000.7,N
1550454575.9,286047000.7,N
1550454595.8,286047002.1,N
1550454615.6,286047003.9,N
1550454635.4,286047002.2,N
1550454655.3,286047001.9,N
1550454675.1,286047003.8,N
1550454695.8,286047003.4,N
1550454715.7,286047002.0,N
1550454735.5,286047000.3,N
1550454755.4,286047002.2,N
1550454775.2,286047001.8,N
1550454795.0,286047002.7,N
1550454795.9,286047002.7,N
1550454815.8,286046999.8,N
1550454835.6,286046998.4,N
1550454855.5,286047001.1,N
1550454875.3,286047002.4,N
1550454895.1,286047002.8,N
1550454915.9,286047001.4,N
1550454935.7,286047003.3,N
1550454955.5,286047004.0,N
1550454975.4,286047003.7,N
1550454995.2,286047004.1,N
1550455015.1,286047002.2,N
1550455016.0,286047002.2,N
1550455065.8,286047003.8,E
1550455075.7,286047002.3,N
1550455095.6,286046998.4,P
1550455115.4,286046997.1,N
1550455135.3,286046999.7,N
1550455155.1,286047001.5,N
1550455156.0,286047001.5,N
1550455175.8,286047002.6,N
1550455195.7,286047000.0,N
